SCP
0 0 0 0 0 0 0 0 0 0 0 0 0 0 0 0 0 0 0 0 0 0 0 0 1 1 0 0 0 0 0 0 0 0 0 0 0 0 0 0 0 0 0 0
0 0 0 0 0 0 0 0 0 0 0 0 0 0 0 0 0 0 0 0 0 0 0 1 1 1 1 0 0 0 0 0 0 0 0 0 0 0 0 0 0 0 0 0
0 0 0 0 0 0 0 0 0 0 0 0 0 0 0 0 0 0 0 0 0 0 1 1 1 1 1 1 0 0 0 0 0 0 0 0 0 0 0 0 0 0 0 0
0 0 0 0 0 0 0 0 0 0 0 0 0 0 0 0 0 0 0 0 0 0 1 1 1 1 1 1 0 0 0 0 0 0 0 0 0 0 0 0 0 0 0 0
0 0 0 0 0 0 0 0 0 0 0 0 0 0 0 0 0 0 0 1 1 1 1 1 1 1 1 1 1 0 0 0 1 1 0 0 0 0 0 0 0 0 0 0
0 0 0 0 0 0 0 0 0 0 0 0 0 0 0 0 0 0 1 1 1 1 1 1 1 1 1 1 1 1 1 1 1 1 1 1 0 0 0 0 0 0 0 0
0 0 0 0 0 0 0 0 0 0 0 0 0 0 0 0 0 0 1 1 1 1 1 1 1 2 2 1 1 1 1 1 1 1 1 1 1 0 0 0 0 0 0 0
0 0 0 0 0 0 0 0 0 0 0 0 0 0 0 0 0 0 1 1 1 1 1 1 2 2 2 1 1 1 1 1 1 1 1 1 1 0 0 0 0 0 0 0
0 0 0 0 0 0 0 0 0 0 0 0 0 0 0 0 0 0 1 1 1 1 1 1 1 2 2 1 1 1 1 1 1 1 1 1 1 0 0 0 0 0 0 0
0 0 0 0 0 0 0 0 0 0 0 0 0 0 1 1 1 1 1 0 0 0 0 0 1 1 1 1 1 2 2 1 1 1 1 1 1 1 1 1 1 1 1 0
0 0 0 0 0 0 0 0 0 1 1 1 0 1 1 1 1 1 1 1 0 0 0 0 1 1 1 1 2 2 2 2 1 1 1 0 0 1 1 1 1 1 0 0
0 0 0 0 0 0 0 0 0 1 1 1 0 1 1 1 1 1 1 1 0 0 0 1 1 1 1 2 3 3 3 2 1 1 1 0 0 0 0 0 0 0 0 0
0 0 0 0 0 0 0 0 1 1 0 0 0 0 1 0 1 1 1 0 0 0 0 1 1 1 2 3 3 3 3 2 1 1 0 0 0 0 0 0 0 0 0 0
0 0 0 0 0 0 0 0 0 0 0 0 0 0 1 0 0 0 0 0 0 0 1 1 2 2 2 3 3 3 2 1 1 0 0 0 0 0 0 0 0 0 0 0
0 0 0 0 0 0 0 0 0 0 0 0 0 0 1 0 0 0 0 1 1 1 1 1 2 1 1 2 2 1 1 1 0 0 0 0 0 0 0 0 0 0 0 0
0 0 0 0 0 0 0 0 1 1 0 0 0 0 0 0 0 0 0 0 1 1 1 1 1 1 1 1 1 1 0 0 0 0 0 0 0 0 0 0 0 0 0 0
0 0 0 0 0 0 0 1 1 1 0 0 0 0 0 0 0 0 0 0 0 0 0 1 1 0 0 0 0 0 0 0 0 0 0 0 0 0 0 0 0 0 0 0
0 0 0 0 0 0 0 1 0 0 0 0 0 0 0 0 0 0 0 0 0 0 0 0 0 1 1 0 0 0 0 0 0 0 0 0 0 0 0 0 0 0 0 0
0 0 0 0 0 0 0 0 0 0 0 0 0 0 0 0 0 0 0 0 0 0 0 0 0 0 1 0 0 0 0 0 0 0 0 0 0 0 0 0 0 0 0 0
0 0 0 0 0 0 0 0 0 0 0 0 0 0 0 0 0 0 0 0 0 0 0 0 0 0 0 0 0 0 0 0 0 0 0 0 0 0 0 0 0 0 0 0
0 0 0 0 0 0 0 0 0 0 0 0 0 0 0 0 0 0 0 0 0 0 0 0 0 0 0 0 0 0 0 0 0 0 0 0 0 0 0 0 0 0 0 1
0 0 0 0 0 0 0 0 0 0 0 0 0 0 0 0 0 0 0 0 0 0 0 0 0 0 0 0 0 0 0 0 0 0 0 0 0 0 0 0 0 0 0 0
0 0 0 0 0 0 0 0 0 0 0 0 0 0 0 0 0 0 0 0 0 0 0 0 0 0 0 0 0 0 0 0 0 0 0 0 0 0 0 0 0 0 0 0
0 0 0 0 0 0 0 0 0 0 0 0 0 0 0 0 0 0 0 0 0 0 0 0 0 0 0 0 0 0 0 0 0 0 0 0 0 0 0 0 0 0 0 0
0 0 0 0 0 0 0 0 0 0 0 0 0 0 0 0 0 0 0 0 0 0 0 0 0 0 0 0 0 0 0 0 0 0 0 0 0 0 0 0 0 0 0 0
0 0 0 0 0 0 0 0 0 0 0 0 0 0 0 0 0 0 0 0 0 0 0 0 0 0 0 0 0 0 0 0 0 0 0 0 0 0 0 0 0 0 0 0
0 0 0 0 0 -0 0 0 0 0 0 0 0 0 0 0 0 0 0 0 0 0 0 0 0 0 0 0 0 0 0 0 0 0 0 0 0 0 0 0 0 0 0 0
Wind_Speed
5 5 3 4 5 5 6 7 8 8 8 10 7 7 8 8 8 8 10 12 13 13 12 11 11 10 10 10 10 10 10 10 9 8 7 7 7 6 6 6 6 5 5 4
3 4 4 5 6 7 7 5 6 5 8 7 4 3 4 7 9 10 11 13 14 13 13 13 13 13 12 11 11 11 11 11 9 8 8 8 8 7 6 6 5 5 5 5
3 3 1 5 6 6 5 5 5 8 8 3 1 4 6 7 9 11 12 13 14 15 15 15 14 14 14 13 11 11 11 10 10 10 10 9 9 8 7 7 5 5 5 5
2 1 5 7 2 3 4 4 5 5 4 4 5 4 4 4 7 9 9 11 12 13 12 12 12 11 11 11 12 12 11 11 10 10 10 9 8 8 7 6 6 5 6 6
3 3 5 4 1 1 2 4 3 4 4 3 1 1 2 3 5 8 9 9 11 12 12 11 12 12 12 11 11 11 12 12 12 12 11 10 10 9 7 6 6 6 5 6
3 3 5 5 2 1 2 4 2 2 3 2 1 1 4 3 3 5 5 6 7 8 9 10 11 12 13 12 12 13 14 13 11 11 11 11 11 8 6 6 7 6 6 6
3 3 6 3 3 1 3 4 3 3 3 2 3 4 4 3 2 3 4 4 6 8 10 11 11 12 13 13 14 14 11 10 10 11 11 10 9 7 6 6 6 6 6 6
3 3 6 2 1 2 4 3 4 3 3 3 3 3 3 2 1 1 2 2 5 7 7 8 11 13 13 14 13 9 9 10 10 10 9 8 8 7 7 7 7 6 6 6
5 5 3 2 2 3 2 3 4 4 4 3 2 2 2 2 2 2 2 3 4 6 6 6 10 12 13 11 9 10 10 10 9 10 8 8 9 9 7 6 6 6 5 5
2 4 4 3 3 3 3 3 5 4 4 2 1 2 2 1 1 1 1 2 3 5 6 6 8 9 9 8 10 10 10 9 8 9 8 8 7 7 7 7 7 6 6 6
3 4 5 3 3 3 4 5 5 4 3 1 1 1 1 0 1 1 2 2 3 5 6 6 6 6 6 9 11 10 9 8 8 8 8 7 7 7 8 8 8 8 7 7
4 4 2 4 3 3 4 5 5 4 4 3 2 1 1 2 2 3 3 3 3 4 5 5 6 5 5 8 10 10 8 8 7 6 6 6 6 4 6 7 9 11 10 7
4 2 2 4 4 3 3 4 4 4 3 3 4 3 3 3 3 4 5 4 4 4 5 5 6 5 5 6 8 9 8 7 6 6 6 6 6 6 4 4 5 8 10 11
2 0 2 2 2 3 4 4 4 5 5 4 4 4 5 5 6 7 6 4 5 6 6 6 6 4 4 6 7 7 6 6 6 5 5 5 5 5 5 4 4 3 5 8
1 1 2 1 2 3 3 5 6 6 6 7 6 6 7 7 8 7 6 6 8 9 7 7 6 4 4 6 7 6 5 4 4 4 4 4 4 4 4 5 4 3 2 3
2 2 2 3 3 4 5 7 7 6 6 7 8 8 8 8 9 9 9 9 10 9 7 7 6 4 4 5 6 4 4 6 5 4 3 3 3 3 3 4 4 3 3 3
2 2 2 3 3 5 6 7 6 6 7 8 8 8 9 10 11 11 9 9 9 9 7 7 5 4 5 5 5 4 3 4 6 4 3 3 3 3 3 3 3 3 3 3
1 2 3 4 5 6 7 8 7 7 7 7 8 9 11 11 10 8 7 8 10 11 9 7 6 5 5 5 4 3 3 3 3 3 2 2 2 2 2 2 2 2 2 1
5 6 7 7 7 7 7 7 6 7 7 8 9 10 10 9 8 8 8 10 11 10 8 8 9 8 6 5 5 4 4 4 3 3 2 2 2 1 1 1 1 1 0 0
8 9 9 9 10 9 8 8 8 8 7 8 10 10 10 9 8 8 9 10 7 5 5 6 7 7 6 5 6 4 4 4 4 3 2 2 1 1 1 1 0 0 0 0
10 10 11 11 11 10 9 8 9 10 9 9 10 10 8 8 8 7 8 7 6 6 6 8 6 5 5 5 6 5 5 4 4 3 3 2 2 1 1 1 1 1 0 0
10 10 11 10 10 10 9 9 9 10 10 10 10 9 8 8 7 7 7 4 4 6 5 5 5 7 7 7 5 5 5 5 4 3 3 3 2 2 1 1 1 1 1 1
10 10 10 9 9 9 10 10 10 9 9 9 8 8 7 5 4 5 5 5 4 7 6 6 7 9 9 6 5 5 5 5 4 4 3 3 3 2 2 2 2 2 2 2
10 10 9 8 9 11 11 9 8 8 8 8 7 6 5 5 5 5 3 5 8 8 6 7 10 10 8 5 5 5 4 4 4 3 3 3 2 2 2 2 2 2 3 3
8 8 9 9 9 7 6 7 8 8 8 7 8 8 6 4 3 3 4 6 8 8 6 8 10 9 6 5 5 4 4 4 3 3 3 3 3 3 3 3 3 3 3 3
7 6 6 5 4 4 4 5 5 5 5 6 6 6 6 5 5 5 5 7 8 8 6 5 6 6 5 5 5 4 4 4 4 3 3 3 3 3 3 3 4 4 3 3
7 6 5 6 5 4 4 5 5 4 4 4 4 5 5 5 5 6 6 6 6 6 5 5 5 5 4 4 4 4 3 3 3 3 3 3 3 3 3 4 3 3 3 4
Wind_Direction
234 241 228 233 234 201 201 196 195 227 231 254 242 219 207 190 178 175 176 179 181 182 182 180 178 179 179 179 175 171 170 176 183 179 171 167 169 172 171 174 180 177 177 184
264 251 232 246 242 224 225 223 230 251 262 258 258 204 195 189 179 183 188 188 186 185 182 183 184 183 181 181 177 172 178 185 180 172 172 175 177 174 174 180 178 175 185 191
248 277 289 255 231 211 213 214 204 227 246 282 267 207 200 193 189 194 194 191 188 189 188 188 188 184 184 182 173 176 182 182 178 177 180 183 180 176 183 187 183 187 195 199
204 121 229 242 226 195 210 243 231 243 263 257 237 230 215 192 192 201 196 193 193 190 189 188 184 181 177 169 172 180 183 184 181 181 185 181 178 185 190 185 187 195 202 206
157 210 266 287 276 161 186 268 242 241 283 299 298 66 306 217 198 206 202 198 196 191 184 179 178 174 165 169 174 180 187 188 186 184 184 182 187 193 190 184 192 196 199 203
159 193 237 250 279 284 131 270 289 259 277 297 90 116 265 261 214 217 207 196 190 179 170 172 175 165 165 174 178 189 194 193 186 183 184 188 192 189 182 187 200 200 208 209
186 225 261 272 298 68 171 243 311 303 278 258 202 215 259 287 233 212 202 193 175 167 173 178 168 164 173 179 192 197 190 181 178 182 186 187 183 178 177 185 193 202 214 219
166 208 252 319 51 180 233 288 303 301 285 260 248 266 280 275 247 199 187 174 166 166 174 170 166 169 179 193 196 180 171 174 179 180 184 183 176 179 179 183 193 206 215 229
192 218 257 283 235 268 274 286 297 295 291 277 276 285 290 271 237 208 181 167 160 163 163 164 170 175 187 194 169 160 166 176 178 177 181 175 178 181 179 185 197 208 211 226
256 275 289 307 312 328 325 294 293 283 282 281 274 292 298 270 212 180 160 154 143 147 155 168 174 179 185 165 155 159 169 174 173 175 179 178 180 183 186 191 199 207 212 223
264 285 316 325 328 328 340 337 338 343 339 337 20 334 317 58 139 144 117 120 137 149 157 167 162 163 160 153 153 160 165 168 172 178 178 182 187 191 195 201 198 199 210 212
239 244 236 282 314 342 354 346 342 356 7 7 26 8 36 67 71 89 90 89 102 125 134 143 140 142 146 151 156 156 161 166 172 176 176 179 184 195 212 212 212 213 215 211
247 268 245 280 318 347 8 4 9 23 22 22 22 39 57 59 57 69 74 78 95 115 122 123 120 122 136 146 149 154 161 165 167 171 174 178 182 189 204 223 221 220 222 223
246 240 310 318 331 360 22 26 33 37 37 42 43 47 62 65 61 61 60 62 78 88 95 104 106 113 134 137 138 145 150 155 159 169 174 179 185 191 195 200 215 234 230 227
332 238 225 275 360 21 37 55 52 42 45 46 49 55 64 70 68 61 56 64 71 74 76 87 92 92 113 127 131 136 140 149 157 161 167 174 179 185 194 201 206 216 224 228
354 37 77 74 59 48 55 64 62 48 51 53 53 54 64 74 71 62 54 60 70 69 67 73 75 77 99 116 122 126 134 137 140 145 149 156 169 185 197 202 205 212 222 226
77 60 67 76 69 62 64 67 67 60 61 61 59 61 68 71 68 62 56 57 66 63 55 60 64 74 89 104 116 122 126 133 131 132 141 153 163 181 196 205 214 222 228 218
93 104 103 106 94 84 76 71 70 66 64 63 64 65 66 69 69 65 62 66 65 55 40 33 40 60 70 83 96 99 107 111 120 128 134 142 153 165 175 192 219 235 252 230
77 84 80 79 80 82 82 79 75 73 70 72 73 70 67 64 62 59 59 61 59 49 22 21 35 48 53 57 81 89 94 98 98 100 111 124 130 136 153 170 194 224 249 282
74 76 79 78 74 73 74 73 73 70 66 73 75 70 63 55 55 60 61 58 45 31 17 32 40 40 43 52 68 79 87 91 95 93 90 91 96 90 104 144 187 204 243 279
76 78 79 77 71 65 64 68 72 69 63 66 72 70 64 53 49 53 58 51 16 16 31 41 44 41 41 52 60 66 73 77 79 80 80 75 74 75 68 51 30 11 4 322
72 72 73 73 73 66 59 62 68 70 66 64 64 66 65 56 50 52 50 44 16 28 40 42 44 48 52 57 61 61 65 66 64 62 62 61 60 56 46 32 11 350 350 343
70 69 68 69 72 72 63 59 61 67 66 63 62 61 60 50 44 56 41 11 24 41 45 43 45 51 54 57 59 59 59 59 57 56 56 55 51 39 23 8 3 355 344 333
73 69 66 67 71 69 62 53 56 60 60 58 51 49 53 54 41 35 44 37 44 49 47 39 43 45 48 51 55 57 57 56 54 50 45 40 33 24 12 2 355 347 333 322
72 69 67 67 67 65 64 62 59 54 55 51 42 35 35 45 56 34 36 40 41 47 46 40 41 41 45 47 48 46 43 43 43 40 34 26 18 10 0 352 344 332 320 313
68 67 66 66 70 69 65 67 65 56 56 53 40 32 33 37 43 42 41 39 39 40 40 35 34 36 40 42 44 43 40 36 33 31 26 20 12 5 356 345 336 329 320 313
64 63 64 58 47 47 56 63 63 52 50 60 49 30 31 35 38 36 35 33 31 31 30 28 29 32 34 35 36 34 31 26 20 12 10 7 0 352 343 332 324 317 314 311